Weather History for Cordova, AK

Change the Weather History Date:

Sunday, March 3, 2013

  Actual Average Record
Temperature  
Mean Temperature 36 °F -  
Max Temperature 42 °F 35 °F 49 °F (1957)
Min Temperature 28 °F 18 °F -24 °F (1956)
Degree Days  
Heating Degree Days 29    
Moisture  
Dew Point 29 °F    
Average Humidity 76    
Maximum Humidity 92    
Minimum Humidity 60    
Precipitation  
Precipitation 0.00 in - - ()
Snow  
Snow 0.00 in - - ()
Snow Depth 4.00 in    
Sea Level Pressure  
Sea Level Pressure 30.33 in    
Wind  
Wind Speed 3 mph (ESE)    
Max Wind Speed 9 mph    
Max Gust Speed -    
Visibility 10 miles    
Events Snow    
Averages and records for this station are not official NWS values.
T = Trace of Precipitation, MM = Missing Value Source: NWS Daily Summary

Daily Weather History Graph

Daily Weather History Graph

Search for Another Location

Airport:

Trip Planner

Search our weather history database for the weather conditions in past years. The results will help you decide how hot, cold, wet, or windy it might be!

Date:

Astronomy

Mar. 03, 2013 Rise Set
Actual Time 7:33 AM AKST 6:14 PM AKST
Civil Twilight 6:51 AM AKST 6:57 PM AKST
Nautical Twilight 6:02 AM AKST 7:46 PM AKST
Astronomical Twilight 5:12 AM AKST 8:36 PM AKST
Moon 1:48 AM AKST (3/3) 9:08 AM AKST (3/3)
Length of Visible Light 12h 05m
Length of Day
10h 41m
Waning Gibbous, 62% of the Moon is Illuminated
Mar 3
Waning Gibbous
Mar 4
Last Quarter
Mar 11
New
Mar 19
First Quarter
Mar 27
Full

Hourly Weather History & Observations

Time (AKST) Temp. Windchill Dew Point Humidity Pressure Visibility Wind Dir Wind Speed Gust Speed Precip Events Conditions
12:53 AM 33.1 °F - 28.9 °F 85% 30.14 in 10.0 mi Calm Calm - 0.00 in Snow Light Snow
1:53 AM 30.9 °F - 28.0 °F 89% 30.16 in 10.0 mi Calm Calm - 0.00 in   Overcast
3:53 AM 30.9 °F - 28.9 °F 92% 30.17 in 10.0 mi Calm Calm - N/A   Overcast
4:53 AM 32.0 °F - 30.0 °F 92% 30.19 in 10.0 mi Calm Calm - N/A   Overcast
5:53 AM 36.0 °F 33.3 °F 28.9 °F 76% 30.21 in 10.0 mi East 3.5 mph - N/A   Overcast
6:53 AM 34.0 °F - 30.0 °F 85% 30.22 in 10.0 mi Calm Calm - N/A   Mostly Cloudy
7:53 AM 37.0 °F 33.3 °F 28.9 °F 73% 30.23 in 10.0 mi SE 4.6 mph - N/A   Mostly Cloudy
8:53 AM 39.0 °F 34.8 °F 28.9 °F 67% 30.26 in 10.0 mi ESE 5.8 mph - N/A   Overcast
9:53 AM 39.0 °F 34.8 °F 30.0 °F 70% 30.28 in 10.0 mi ESE 5.8 mph - N/A   Overcast
10:53 AM 39.0 °F 34.0 °F 30.0 °F 70% 30.32 in 10.0 mi SE 6.9 mph - N/A   Overcast
11:53 AM 41.0 °F 35.2 °F 30.9 °F 67% 30.35 in 10.0 mi SE 9.2 mph - N/A   Mostly Cloudy
12:53 PM 42.1 °F 37.7 °F 30.9 °F 65% 30.36 in 10.0 mi SE 6.9 mph - N/A   Mostly Cloudy
1:53 PM 42.1 °F 38.4 °F 30.0 °F 62% 30.37 in 10.0 mi ESE 5.8 mph - N/A   Overcast
2:53 PM 42.1 °F 37.7 °F 28.9 °F 60% 30.38 in 10.0 mi ESE 6.9 mph - N/A   Overcast
3:53 PM 41.0 °F 37.1 °F 30.0 °F 65% 30.39 in 10.0 mi ESE 5.8 mph - N/A   Overcast
4:53 PM 41.0 °F 36.4 °F 30.0 °F 65% 30.40 in 10.0 mi East 6.9 mph - N/A   Overcast
5:53 PM 41.0 °F 39.0 °F 30.0 °F 65% 30.41 in 10.0 mi East 3.5 mph - N/A   Overcast
6:53 PM 39.0 °F - 28.9 °F 67% 30.44 in 10.0 mi Calm Calm - N/A   Overcast
7:53 PM 35.1 °F - 28.9 °F 78% 30.45 in 10.0 mi Calm Calm - N/A   Partly Cloudy
8:53 PM 34.0 °F 31.0 °F 28.0 °F 79% 30.47 in 10.0 mi East 3.5 mph - N/A   Clear
9:53 PM 33.1 °F 28.7 °F 28.0 °F 82% 30.48 in 10.0 mi ENE 4.6 mph - N/A   Clear
10:53 PM 30.0 °F - 28.0 °F 92% 30.50 in 10.0 mi Calm Calm - N/A   Clear
11:53 PM 28.9 °F - 27.0 °F 92% 30.52 in 10.0 mi Calm Calm - N/A   Clear